Location: Azul
(36.7830°S, 59.8500°W)
Time: 10:02:53
(UTC-03:00)

NOAA 19 - Pass Details

Date: 28 October 2021
Orbit: 840 x 861 km, 99.2° (Epoch: 07 December)

Event Time Altitude Azimuth Distance (km) Brightness Sun altitude
Rises 20:49:49 0° 170° (S) 3,473 8.7 -15.6°
Reaches altitude 10° 20:52:14 10° 173° (S) 2,530 8.0 -16.1°
Maximum altitude 20:57:47 64° 253° (WSW) 960 5.7 -17.0°
Drops below altitude 10° 21:03:16 10° 333° (NNW) 2,495 7.6 -17.9°
Sets 21:05:38 0° 336° (NNW) 3,421 8.3 -18.3°
